EW0159 Weather Reports


Display with metric or nautical units.
time (UTC)temp
F
wind
direction
speed
MPH
gust
MPH
rain 1hr
in
rain 24hr
in
rain mn
in
humidity
%
barometer
mb
20260903133006 54 190 2.0 9.0 0.05 0.27 0.09 74 1009.1
20260903131505 54 136 2.0 8.0 0.07 0.27 0.09 74 1009.0
20260903130003 55 163 0.0 5.0 0.07 0.26 0.08 75 1009.0
20260903124507 55 203 0.0 4.0 0.05 0.23 0.05 76 1009.1
20260903123102 55 171 0.0 6.0 0.04 0.22 0.04 77 1009.2
20260903121559 55 156 1.0 5.0 0.02 0.20 0.02 78 1009.2
20260903120104 56 162 1.0 8.0 0.01 0.19 0.01 79 1009.2
20260903114601 56 190 2.0 10.0 0.00 0.18 0.00 80 1009.2
20260903113058 56 191 2.0 7.0 0.00 0.18 0.00 80 1009.2
20260903111553 56 167 5.0 8.0 0.00 0.18 0.00 80 1009.2
20260903110052 56 140 4.0 12.0 0.00 0.18 0.00 80 1009.2
20260903104551 56 116 2.0 7.0 0.00 0.18 0.00 80 1009.2
20260903103052 56 180 2.0 7.0 0.00 0.18 0.00 79 1009.1
20260903101556 56 227 1.0 7.0 0.00 0.18 0.00 79 1009.2
20260903100051 56 169 1.0 5.0 0.00 0.18 0.00 79 1009.0
20260903094616 56 171 2.0 9.0 0.00 0.18 0.00 79 1009.1
20260903093047 56 188 3.0 8.0 0.00 0.18 0.00 79 1009.2
20260903091543 56 184 0.0 7.0 0.00 0.18 0.00 79 1009.1
20260903090040 56 161 0.0 8.0 0.00 0.18 0.00 78 1009.3
20260903084541 56 153 2.0 7.0 0.00 0.18 0.00 78 1009.4
20260903083042 56 211 2.0 6.0 0.00 0.18 0.00 78 1009.3
20260903081540 56 192 0.0 3.0 0.00 0.18 0.00 78 1009.4
20260903080051 56 178 1.0 4.0 0.00 0.18 0.00 78 1009.4
20260903074536 56 211 0.0 4.0 0.00 0.18 0.00 78 1009.5
20260903073034 57 198 0.0 6.0 0.00 0.18 0.00 78 1009.4
20260903071533 57 171 0.0 5.0 0.00 0.18 0.00 78 1009.2
20260903070032 57 172 0.0 5.0 0.00 0.18 0.18 78 1009.2
20260903064531 57 67 2.0 9.0 0.00 0.18 0.18 78 1009.2
20260903063030 57 75 3.0 8.0 0.00 0.18 0.18 78 1009.1
20260903061529 57 180 2.0 7.0 0.00 0.18 0.18 78 1009.3
20260903060029 57 179 1.0 8.0 0.00 0.18 0.18 78 1009.3
20260903054529 57 205 1.0 6.0 0.00 0.18 0.18 78 1009.3
20260903053028 57 205 2.0 7.0 0.00 0.18 0.18 77 1009.2
20260903051527 56 195 1.0 6.0 0.00 0.18 0.18 77 1009.3
20260903050027 56 227 0.0 3.0 0.00 0.18 0.18 76 1009.1
20260903044534 55 140 0.0 0.0 0.00 0.18 0.18 76 1009.0
20260903043027 55 140 0.0 0.0 0.00 0.18 0.18 76 1008.9
20260903041526 54 57 0.0 0.0 0.00 0.18 0.18 78 1008.7
20260903040024 55 57 0.0 0.0 0.00 0.18 0.18 79 1008.5
20260903034522 55 57 0.0 2.0 0.00 0.18 0.18 80 1008.2
20260903033019 56 44 0.0 1.0 0.00 0.18 0.18 80 1008.1
20260903031519 57 44 0.0 2.0 0.00 0.18 0.18 80 1008.0
20260903030019 59 154 0.0 1.0 0.00 0.18 0.18 79 1007.7
20260903024518 60 225 1.0 5.0 0.00 0.18 0.18 76 1007.7
20260903023017 61 238 1.0 8.0 0.00 0.18 0.18 73 1007.5
20260903021520 62 68 2.0 5.0 0.00 0.18 0.18 75 1007.3
20260903020016 63 203 2.0 6.0 0.00 0.18 0.18 78 1007.2
20260903014516 62 159 3.0 6.0 0.00 0.18 0.18 78 1007.2
20260903013015 63 211 4.0 9.0 0.00 0.18 0.18 77 1007.1
20260903011515 63 236 4.0 9.0 0.00 0.18 0.18 76 1007.0
20260903010015 64 219 6.0 12.0 0.00 0.18 0.18 72 1006.8
20260903004514 64 226 7.0 13.0 0.00 0.18 0.18 71 1006.7
20260903003012 64 241 2.0 10.0 0.00 0.18 0.18 73 1006.6
20260903001509 64 211 2.0 8.0 0.00 0.18 0.18 80 1006.6
20260903000017 62 228 3.0 7.0 0.00 0.19 0.18 80 1006.6
20260902234512 62 189 0.0 8.0 0.00 0.19 0.18 79 1006.4
20260902233004 62 219 4.0 9.0 0.00 0.19 0.18 78 1006.5
20260902231511 61 207 3.0 7.0 0.00 0.19 0.18 75 1006.4
20260902230002 60 174 2.0 7.0 0.00 0.19 0.18 75 1006.3
20260902224501 60 138 1.0 10.0 0.00 0.19 0.18 75 1006.2
20260902223002 59 209 4.0 9.0 0.00 0.19 0.18 75 1006.1
20260902221604 59 214 2.0 11.0 0.00 0.19 0.18 75 1006.0
20260902214623 59 175 5.0 14.0 0.01 0.19 0.18 74 1005.8
20260902213058 58 186 3.0 8.0 0.01 0.19 0.18 74 1005.8
20260902211558 58 180 4.0 15.0 0.02 0.19 0.18 74 1005.8
20260902210121 58 142 3.0 13.0 0.02 0.19 0.18 74 1005.9
20260902204601 58 186 4.0 12.0 0.01 0.18 0.17 75 1005.7
20260902203100 58 139 5.0 14.0 0.01 0.18 0.17 76 1005.6
20260902201554 58 93 5.0 15.0 0.01 0.17 0.16 76 1005.4
20260902200106 58 139 4.0 9.0 0.04 0.17 0.16 76 1005.5
20260902194559 58 155 1.0 7.0 0.05 0.17 0.16 76 1005.8
20260902193050 58 161 1.0 10.0 0.06 0.17 0.16 77 1005.9
20260902191558 58 145 4.0 10.0 0.06 0.16 0.15 78 1006.1
20260902190109 58 134 2.0 6.0 0.04 0.13 0.12 77 1006.3
20260902184558 58 132 1.0 6.0 0.04 0.11 0.10 78 1006.2
20260902183046 58 154 2.0 7.0 0.06 0.11 0.10 78 1006.3
20260902181558 58 154 0.0 5.0 0.07 0.10 0.09 79 1006.6
20260902180044 58 184 0.0 8.0 0.07 0.10 0.08 79 1006.9
20260902174544 59 159 0.0 4.0 0.06 0.08 0.06 79 1006.9
20260902173042 59 148 1.0 4.0 0.04 0.06 0.04 80 1006.8
20260902171602 60 182 2.0 7.0 0.02 0.04 0.02 80 1006.7
20260902170040 60 189 2.0 8.0 0.01 0.03 0.01 80 1006.6
20260902164541 61 208 0.0 3.0 0.00 0.02 0.00 79 1006.5
20260902163038 61 155 0.0 3.0 0.00 0.02 0.00 79 1006.5
20260902161545 61 192 0.0 3.0 0.00 0.02 0.00 78 1006.4
20260902160042 61 214 1.0 7.0 0.00 0.02 0.00 77 1006.4
20260902154536 61 132 2.0 8.0 0.00 0.02 0.00 78 1006.6
20260902153031 60 176 0.0 4.0 0.00 0.02 0.00 79 1006.9
20260902151532 60 190 0.0 0.0 0.00 0.02 0.00 79 1006.9
20260902150128 60 190 0.0 0.0 0.00 0.02 0.00 79 1007.0
20260902144530 60 148 0.0 2.0 0.00 0.02 0.00 79 1007.1
20260902143024 59 153 0.0 3.0 0.00 0.02 0.00 79 1007.2
20260902141531 59 161 0.0 2.0 0.00 0.02 0.00 80 1007.4
20260902140021 59 137 0.0 1.0 0.00 0.02 0.00 80 1007.5
20260902134524 59 97 0.0 1.0 0.00 0.02 0.00 80 1007.7